Year,Month,Day,Hour,Minute,Value (Times are PST for temperature in C)
2017,01,11,00,00,-4.80
2017,01,11,00,01,-4.80
2017,01,11,00,02,-4.80
2017,01,11,00,03,-4.80
2017,01,11,00,04,-4.80
2017,01,11,00,05,-4.80
2017,01,11,00,06,-4.80
2017,01,11,00,07,-4.80
2017,01,11,00,08,-4.90
2017,01,11,00,09,-4.90
2017,01,11,00,10,-4.90
2017,01,11,00,11,-4.90
2017,01,11,00,12,-4.90
2017,01,11,00,13,-4.90
2017,01,11,00,14,-4.90
2017,01,11,00,15,-5.00
2017,01,11,00,16,-5.00
2017,01,11,00,17,-5.00
2017,01,11,00,18,-5.00
2017,01,11,00,19,-5.00
2017,01,11,00,20,-5.10
2017,01,11,00,21,-5.10
2017,01,11,00,22,-5.10
2017,01,11,00,23,-5.10
2017,01,11,00,24,-5.10
2017,01,11,00,25,-5.20
2017,01,11,00,26,-5.20
2017,01,11,00,27,-5.20
2017,01,11,00,28,-5.20
2017,01,11,00,29,-5.30
2017,01,11,00,30,-5.30
2017,01,11,00,31,-5.30
2017,01,11,00,32,-5.30
2017,01,11,00,33,-5.40
2017,01,11,00,34,-5.50
2017,01,11,00,35,-5.50
2017,01,11,00,36,-5.50
2017,01,11,00,37,-5.60
2017,01,11,00,38,-5.60
2017,01,11,00,39,-5.60
2017,01,11,00,40,-5.60
2017,01,11,00,41,-5.60
2017,01,11,00,42,-5.60
2017,01,11,00,43,-5.60
2017,01,11,00,44,-5.60
2017,01,11,00,45,-5.60
2017,01,11,00,46,-5.70
2017,01,11,00,47,-5.70
2017,01,11,00,48,-5.70
2017,01,11,00,49,-5.70
2017,01,11,00,50,-5.70
2017,01,11,00,51,-5.70
2017,01,11,00,52,-5.70
2017,01,11,00,53,-5.70
2017,01,11,00,54,-5.80
2017,01,11,00,55,-5.80
2017,01,11,00,56,-5.80
2017,01,11,00,57,-5.80
2017,01,11,00,58,-5.80
2017,01,11,00,59,-5.80
2017,01,11,01,00,-5.80
2017,01,11,01,01,-5.80
2017,01,11,01,02,-5.80
2017,01,11,01,03,-5.80
2017,01,11,01,04,-5.90
2017,01,11,01,05,-5.90
2017,01,11,01,06,-5.90
2017,01,11,01,07,-5.90
2017,01,11,01,08,-5.90
2017,01,11,01,09,-6.00
2017,01,11,01,10,-6.00
2017,01,11,01,11,-6.00
2017,01,11,01,12,-6.10
2017,01,11,01,13,-6.10
2017,01,11,01,14,-6.10
2017,01,11,01,15,-6.10
2017,01,11,01,16,-6.10
2017,01,11,01,17,-6.10
2017,01,11,01,18,-6.10
2017,01,11,01,19,-6.10
2017,01,11,01,20,-6.10
2017,01,11,01,21,-6.20
2017,01,11,01,22,-6.20
2017,01,11,01,23,-6.20
2017,01,11,01,24,-6.20
2017,01,11,01,25,-6.20
2017,01,11,01,26,-6.20
2017,01,11,01,27,-6.20
2017,01,11,01,28,-6.20
2017,01,11,01,29,-6.30
2017,01,11,01,30,-6.30
2017,01,11,01,31,-6.30
2017,01,11,01,32,-6.30
2017,01,11,01,33,-6.30
2017,01,11,01,34,-6.30
2017,01,11,01,35,-6.30
2017,01,11,01,36,-6.30
2017,01,11,01,37,-6.40
2017,01,11,01,38,-6.40
2017,01,11,01,39,-6.40
2017,01,11,01,40,-6.40
2017,01,11,01,41,-6.40
2017,01,11,01,42,-6.40
2017,01,11,01,43,-6.40
2017,01,11,01,44,-6.40
2017,01,11,01,45,-6.40
2017,01,11,01,46,-6.40
2017,01,11,01,47,-6.40
2017,01,11,01,48,-6.50
2017,01,11,01,49,-6.50
2017,01,11,01,50,-6.50
2017,01,11,01,51,-6.50
2017,01,11,01,52,-6.50
2017,01,11,01,53,-6.60
2017,01,11,01,54,-6.60
2017,01,11,01,55,-6.60
2017,01,11,01,56,-6.70
2017,01,11,01,57,-6.70
2017,01,11,01,58,-6.70
2017,01,11,01,59,-6.70
2017,01,11,02,00,-6.70
2017,01,11,02,01,-6.80
2017,01,11,02,02,-6.80
2017,01,11,02,03,-6.80
2017,01,11,02,04,-6.80
2017,01,11,02,05,-6.80
2017,01,11,02,06,-6.80
2017,01,11,02,07,-6.80
2017,01,11,02,08,-6.80
2017,01,11,02,09,-6.80
2017,01,11,02,10,-6.80
2017,01,11,02,11,-6.80
2017,01,11,02,12,-6.80
2017,01,11,02,13,-6.80
2017,01,11,02,14,-6.80
2017,01,11,02,15,-6.80
2017,01,11,02,16,-6.80
2017,01,11,02,17,-6.90
2017,01,11,02,18,-6.90
2017,01,11,02,19,-6.90
2017,01,11,02,20,-6.90
2017,01,11,02,21,-6.90
2017,01,11,02,22,-6.90
2017,01,11,02,23,-6.90
2017,01,11,02,24,-7.00
2017,01,11,02,25,-7.00
2017,01,11,02,26,-7.00
2017,01,11,02,27,-7.00
2017,01,11,02,28,-7.00
2017,01,11,02,29,-7.10
2017,01,11,02,30,-7.10
2017,01,11,02,31,-7.10
2017,01,11,02,32,-7.10
2017,01,11,02,33,-7.20
2017,01,11,02,34,-7.20
2017,01,11,02,35,-7.20
2017,01,11,02,36,-7.20
2017,01,11,02,37,-7.20
2017,01,11,02,38,-7.20
2017,01,11,02,39,-7.20
2017,01,11,02,40,-7.20
2017,01,11,02,41,-7.20
2017,01,11,02,42,-7.20
2017,01,11,02,43,-7.20
2017,01,11,02,44,-7.20
2017,01,11,02,45,-7.20
2017,01,11,02,46,-7.20
2017,01,11,02,47,-7.20
2017,01,11,02,48,-7.20
2017,01,11,02,49,-7.20
2017,01,11,02,50,-7.20
2017,01,11,02,51,-7.20
2017,01,11,02,52,-7.20
2017,01,11,02,53,-7.20
2017,01,11,02,54,-7.20
2017,01,11,02,55,-7.20
2017,01,11,02,56,-7.20
2017,01,11,02,57,-7.20
2017,01,11,02,58,-7.20
2017,01,11,02,59,-7.20
2017,01,11,03,00,-7.20
2017,01,11,03,01,-7.20
2017,01,11,03,02,-7.20
2017,01,11,03,03,-7.20
2017,01,11,03,04,-7.20
2017,01,11,03,05,-7.20
2017,01,11,03,06,-7.20
2017,01,11,03,07,-7.20
2017,01,11,03,08,-7.30
2017,01,11,03,09,-7.30
2017,01,11,03,10,-7.30
2017,01,11,03,11,-7.30
2017,01,11,03,12,-7.30
2017,01,11,03,13,-7.40
2017,01,11,03,14,-7.40
2017,01,11,03,15,-7.40
2017,01,11,03,16,-7.40
2017,01,11,03,17,-7.50
2017,01,11,03,18,-7.50
2017,01,11,03,19,-7.50
2017,01,11,03,20,-7.50
2017,01,11,03,21,-7.50
2017,01,11,03,22,-7.50
2017,01,11,03,23,-7.50
2017,01,11,03,24,-7.60
2017,01,11,03,25,-7.60
2017,01,11,03,26,-7.60
2017,01,11,03,27,-7.60
2017,01,11,03,28,-7.60
2017,01,11,03,29,-7.60
2017,01,11,03,30,-7.60
2017,01,11,03,31,-7.60
2017,01,11,03,32,-7.60
2017,01,11,03,33,-7.60
2017,01,11,03,34,-7.60
2017,01,11,03,35,-7.70
2017,01,11,03,36,-7.70
2017,01,11,03,37,-7.70
2017,01,11,03,38,-7.70
2017,01,11,03,39,-7.70
2017,01,11,03,40,-7.70
2017,01,11,03,41,-7.70
2017,01,11,03,42,-7.70
2017,01,11,03,43,-7.70
2017,01,11,03,44,-7.80
2017,01,11,03,45,-7.80
2017,01,11,03,46,-7.80
2017,01,11,03,47,-7.80
2017,01,11,03,48,-7.80
2017,01,11,03,49,-7.80
2017,01,11,03,50,-7.80
2017,01,11,03,51,-7.80
2017,01,11,03,52,-7.80
2017,01,11,03,53,-7.80
2017,01,11,03,54,-7.80
2017,01,11,03,55,-7.80
2017,01,11,03,56,-7.80
2017,01,11,03,57,-7.80
2017,01,11,03,58,-7.80
2017,01,11,03,59,-7.90
2017,01,11,04,00,-7.90
2017,01,11,04,01,-7.90
2017,01,11,04,02,-7.90
2017,01,11,04,03,-7.90
2017,01,11,04,04,-7.90
2017,01,11,04,05,-7.90
2017,01,11,04,06,-7.90
2017,01,11,04,07,-7.90
2017,01,11,04,08,-7.90
2017,01,11,04,09,-7.90
2017,01,11,04,10,-7.90
2017,01,11,04,11,-7.90
2017,01,11,04,12,-7.90
2017,01,11,04,13,-7.90
2017,01,11,04,14,-7.90
2017,01,11,04,15,-8.00
2017,01,11,04,16,-8.00
2017,01,11,04,17,-8.00
2017,01,11,04,18,-8.00
2017,01,11,04,19,-8.00
2017,01,11,04,20,-8.10
2017,01,11,04,21,-8.10
2017,01,11,04,22,-8.10
2017,01,11,04,23,-8.10
2017,01,11,04,24,-8.20
2017,01,11,04,25,-8.20
2017,01,11,04,26,-8.20
2017,01,11,04,27,-8.20
2017,01,11,04,28,-8.20
2017,01,11,04,29,-8.20
2017,01,11,04,30,-8.20
2017,01,11,04,31,-8.20
2017,01,11,04,32,-8.20
2017,01,11,04,33,-8.20
2017,01,11,04,34,-8.20
2017,01,11,04,35,-8.20
2017,01,11,04,36,-8.20
2017,01,11,04,37,-8.20
2017,01,11,04,38,-8.20
2017,01,11,04,39,-8.20
2017,01,11,04,40,-8.20
2017,01,11,04,41,-8.20
2017,01,11,04,42,-8.20
2017,01,11,04,43,-8.20
2017,01,11,04,44,-8.30
2017,01,11,04,45,-8.30
2017,01,11,04,46,-8.30
2017,01,11,04,47,-8.30
2017,01,11,04,48,-8.30
2017,01,11,04,49,-8.30
2017,01,11,04,50,-8.40
2017,01,11,04,51,-8.40
2017,01,11,04,52,-8.40
2017,01,11,04,53,-8.40
2017,01,11,04,54,-8.40
2017,01,11,04,55,-8.40
2017,01,11,04,56,-8.40
2017,01,11,04,57,-8.40
2017,01,11,04,58,-8.50
2017,01,11,04,59,-8.50
2017,01,11,05,00,-8.50
2017,01,11,05,01,-8.50
2017,01,11,05,02,-8.50
2017,01,11,05,03,-8.50
2017,01,11,05,04,-8.50
2017,01,11,05,05,-8.50
2017,01,11,05,06,-8.50
2017,01,11,05,07,-8.50
2017,01,11,05,08,-8.50
2017,01,11,05,09,-8.50
2017,01,11,05,10,-8.50
2017,01,11,05,11,-8.50
2017,01,11,05,12,-8.50
2017,01,11,05,13,-8.60
2017,01,11,05,14,-8.60
2017,01,11,05,15,-8.60
2017,01,11,05,16,-8.60
2017,01,11,05,17,-8.60
2017,01,11,05,18,-8.60
2017,01,11,05,19,-8.60
2017,01,11,05,20,-8.70
2017,01,11,05,21,-8.70
2017,01,11,05,22,-8.70
2017,01,11,05,23,-8.70
2017,01,11,05,24,-8.70
2017,01,11,05,25,-8.70
2017,01,11,05,26,-8.70
2017,01,11,05,27,-8.70
2017,01,11,05,28,-8.70
2017,01,11,05,29,-8.70
2017,01,11,05,30,-8.70
2017,01,11,05,31,-8.70
2017,01,11,05,32,-8.70
2017,01,11,05,33,-8.70
2017,01,11,05,34,-8.70
2017,01,11,05,35,-8.70
2017,01,11,05,36,-8.70
2017,01,11,05,37,-8.70
2017,01,11,05,38,-8.70
2017,01,11,05,39,-8.60
2017,01,11,05,40,-8.60
2017,01,11,05,41,-8.60
2017,01,11,05,42,-8.60
2017,01,11,05,43,-8.60
2017,01,11,05,44,-8.70
2017,01,11,05,45,-8.70
2017,01,11,05,46,-8.70
2017,01,11,05,47,-8.70
2017,01,11,05,48,-8.70
2017,01,11,05,49,-8.70
2017,01,11,05,50,-8.80
2017,01,11,05,51,-8.80
2017,01,11,05,52,-8.80
2017,01,11,05,53,-8.80
2017,01,11,05,54,-8.80
2017,01,11,05,55,-8.80
2017,01,11,05,56,-8.80
2017,01,11,05,57,-8.80
2017,01,11,05,58,-8.80
2017,01,11,05,59,-8.80
2017,01,11,06,00,-8.80
2017,01,11,06,01,-8.80
2017,01,11,06,02,-8.80
2017,01,11,06,03,-8.80
2017,01,11,06,04,-8.80
2017,01,11,06,05,-8.90
2017,01,11,06,06,-8.90
2017,01,11,06,07,-8.90
2017,01,11,06,08,-8.90
2017,01,11,06,09,-8.90
2017,01,11,06,10,-8.90
2017,01,11,06,11,-8.90
2017,01,11,06,12,-8.90
2017,01,11,06,13,-8.90
2017,01,11,06,14,-8.90
2017,01,11,06,15,-8.90
2017,01,11,06,16,-8.90
2017,01,11,06,17,-8.90
2017,01,11,06,18,-8.90
2017,01,11,06,19,-8.90
2017,01,11,06,20,-8.90
2017,01,11,06,21,-8.90
2017,01,11,06,22,-8.90
2017,01,11,06,23,-8.90
2017,01,11,06,24,-8.90
2017,01,11,06,25,-8.90
2017,01,11,06,26,-8.90
2017,01,11,06,27,-8.90
2017,01,11,06,28,-8.90
2017,01,11,06,29,-8.90
2017,01,11,06,30,-8.90
2017,01,11,06,31,-8.90
2017,01,11,06,32,-8.90
2017,01,11,06,33,-8.90
2017,01,11,06,34,-9.00
2017,01,11,06,35,-9.00
2017,01,11,06,36,-9.00
2017,01,11,06,37,-9.00
2017,01,11,06,38,-9.00
2017,01,11,06,39,-9.00
2017,01,11,06,40,-9.00
2017,01,11,06,41,-9.00
2017,01,11,06,42,-9.00
2017,01,11,06,43,-9.10
2017,01,11,06,44,-9.10
2017,01,11,06,45,-9.10
2017,01,11,06,46,-9.10
2017,01,11,06,47,-9.10
2017,01,11,06,48,-9.10
2017,01,11,06,49,-9.10
2017,01,11,06,50,-9.10
2017,01,11,06,51,-9.20
2017,01,11,06,52,-9.20
2017,01,11,06,53,-9.20
2017,01,11,06,54,-9.20
2017,01,11,06,55,-9.20
2017,01,11,06,56,-9.20
2017,01,11,06,57,-9.20
2017,01,11,06,58,-9.20
2017,01,11,06,59,-9.20
2017,01,11,07,00,-9.20
2017,01,11,07,01,-9.20
2017,01,11,07,02,-9.20
2017,01,11,07,03,-9.20
2017,01,11,07,04,-9.20
2017,01,11,07,05,-9.20
2017,01,11,07,06,-9.20
2017,01,11,07,07,-9.20
2017,01,11,07,08,-9.20
2017,01,11,07,09,-9.20
2017,01,11,07,10,-9.20
2017,01,11,07,11,-9.20
2017,01,11,07,12,-9.20
2017,01,11,07,13,-9.20
2017,01,11,07,14,-9.20
2017,01,11,07,15,-9.20
2017,01,11,07,16,-9.30
2017,01,11,07,17,-9.30
2017,01,11,07,18,-9.30
2017,01,11,07,19,-9.30
2017,01,11,07,20,-9.40
2017,01,11,07,21,-9.40
2017,01,11,07,22,-9.40
2017,01,11,07,23,-9.40
2017,01,11,07,24,-9.40
2017,01,11,07,25,-9.40
2017,01,11,07,26,-9.40
2017,01,11,07,27,-9.40
2017,01,11,07,28,-9.40
2017,01,11,07,29,-9.40
2017,01,11,07,30,-9.40
2017,01,11,07,31,-9.40
2017,01,11,07,32,-9.40
2017,01,11,07,33,-9.40
2017,01,11,07,34,-9.40
2017,01,11,07,35,-9.40
2017,01,11,07,36,-9.40
2017,01,11,07,37,-9.40
2017,01,11,07,38,-9.40
2017,01,11,07,39,-9.40
2017,01,11,07,40,-9.40
2017,01,11,07,41,-9.40
2017,01,11,07,42,-9.40
2017,01,11,07,43,-9.40
2017,01,11,07,44,-9.40
2017,01,11,07,45,-9.40
2017,01,11,07,46,-9.50
2017,01,11,07,47,-9.50
2017,01,11,07,48,-9.50
2017,01,11,07,49,-9.50
2017,01,11,07,50,-9.50
2017,01,11,07,51,-9.50
2017,01,11,07,52,-9.50
2017,01,11,07,53,-9.50
2017,01,11,07,54,-9.50
2017,01,11,07,55,-9.50
2017,01,11,07,56,-9.50
2017,01,11,07,57,-9.50
2017,01,11,07,58,-9.50
2017,01,11,07,59,-9.50
2017,01,11,08,00,-9.50
2017,01,11,08,01,-9.50
2017,01,11,08,02,-9.50
2017,01,11,08,03,-9.50
2017,01,11,08,04,-9.60
2017,01,11,08,05,-9.50
2017,01,11,08,06,-9.60
2017,01,11,08,07,-9.60
2017,01,11,08,08,-9.60
2017,01,11,08,09,-9.60
2017,01,11,08,10,-9.60
2017,01,11,08,11,-9.70
2017,01,11,08,12,-9.70
2017,01,11,08,13,-9.70
2017,01,11,08,14,-9.70
2017,01,11,08,15,-9.70
2017,01,11,08,16,-9.70
2017,01,11,08,17,-9.70
2017,01,11,08,18,-9.70
2017,01,11,08,19,-9.70
2017,01,11,08,20,-9.70
2017,01,11,08,21,-9.70
2017,01,11,08,22,-9.70
2017,01,11,08,23,-9.70
2017,01,11,08,24,-9.70
2017,01,11,08,25,-9.70
2017,01,11,08,26,-9.70
2017,01,11,08,27,-9.70
2017,01,11,08,28,-9.70
2017,01,11,08,29,-9.70
2017,01,11,08,30,-9.70
2017,01,11,08,31,-9.70
2017,01,11,08,32,-9.70
2017,01,11,08,33,-9.70
2017,01,11,08,34,-9.70
2017,01,11,08,35,-9.70
2017,01,11,08,36,-9.70
2017,01,11,08,37,-9.70
2017,01,11,08,38,-9.70
2017,01,11,08,39,-9.70
2017,01,11,08,40,-9.70
2017,01,11,08,41,-9.70
2017,01,11,08,42,-9.70
2017,01,11,08,43,-9.70
2017,01,11,08,44,-9.70
2017,01,11,08,45,-9.70
2017,01,11,08,46,-9.70
2017,01,11,08,47,-9.70
2017,01,11,08,48,-9.70
2017,01,11,08,49,-9.70
2017,01,11,08,50,-9.70
2017,01,11,08,51,-9.70
2017,01,11,08,52,-9.70
2017,01,11,08,53,-9.70
2017,01,11,08,54,-9.60
2017,01,11,08,55,-9.60
2017,01,11,08,56,-9.60
2017,01,11,08,57,-9.60
2017,01,11,08,58,-9.60
2017,01,11,08,59,-9.60
2017,01,11,09,00,-9.60
2017,01,11,09,01,-9.60
2017,01,11,09,02,-9.60
2017,01,11,09,03,-9.70
2017,01,11,09,04,-9.70
2017,01,11,09,05,-9.70
2017,01,11,09,06,-9.70
2017,01,11,09,07,-9.70
2017,01,11,09,08,-9.70
2017,01,11,09,09,-9.60
2017,01,11,09,10,-9.60
2017,01,11,09,11,-9.60
2017,01,11,09,12,-9.60
2017,01,11,09,13,-9.60
2017,01,11,09,14,-9.60
2017,01,11,09,15,-9.60
2017,01,11,09,16,-9.60
2017,01,11,09,17,-9.60
2017,01,11,09,18,-9.50
2017,01,11,09,19,-9.50
2017,01,11,09,20,-9.40
2017,01,11,09,21,-9.40
2017,01,11,09,22,-9.30
2017,01,11,09,23,-9.30
2017,01,11,09,24,-9.20
2017,01,11,09,25,-9.20
2017,01,11,09,26,-9.20
2017,01,11,09,27,-9.20
2017,01,11,09,28,-9.20
2017,01,11,09,29,-9.10
2017,01,11,09,30,-9.10
2017,01,11,09,31,-9.00
2017,01,11,09,32,-9.00
2017,01,11,09,33,-8.90
2017,01,11,09,34,-8.80
2017,01,11,09,35,-8.70
2017,01,11,09,36,-8.70
2017,01,11,09,37,-8.60
2017,01,11,09,38,-8.50
2017,01,11,09,39,-8.50
2017,01,11,09,40,-8.40
2017,01,11,09,41,-8.30
2017,01,11,09,42,-8.30
2017,01,11,09,43,-8.30
2017,01,11,09,44,-8.30
2017,01,11,09,45,-8.30
2017,01,11,09,46,-8.20
2017,01,11,09,47,-8.20
2017,01,11,09,48,-8.20
2017,01,11,09,49,-8.20
2017,01,11,09,50,-8.10
2017,01,11,09,51,-8.00
2017,01,11,09,52,-7.90
2017,01,11,09,53,-7.80
2017,01,11,09,54,-7.70
2017,01,11,09,55,-7.50
2017,01,11,09,56,-7.40
2017,01,11,09,57,-7.30
2017,01,11,09,58,-7.20
2017,01,11,09,59,-7.10
2017,01,11,10,00,-6.90
2017,01,11,10,01,-6.80
2017,01,11,10,02,-6.80
2017,01,11,10,03,-6.70
2017,01,11,10,04,-6.70
2017,01,11,10,05,-6.70
2017,01,11,10,06,-6.70
2017,01,11,10,07,-6.60
2017,01,11,10,08,-6.60
2017,01,11,10,09,-6.50
2017,01,11,10,10,-6.50
2017,01,11,10,11,-6.40
2017,01,11,10,12,-6.40
2017,01,11,10,13,-6.40
2017,01,11,10,14,-6.40
2017,01,11,10,15,-6.40
2017,01,11,10,16,-6.40
2017,01,11,10,17,-6.50
2017,01,11,10,18,-6.50
2017,01,11,10,19,-6.50
2017,01,11,10,20,-6.50
2017,01,11,10,21,-6.60
2017,01,11,10,22,-6.60
2017,01,11,10,23,-6.60
2017,01,11,10,24,-6.50
2017,01,11,10,25,-6.50
2017,01,11,10,26,-6.40
2017,01,11,10,27,-6.40
2017,01,11,10,28,-6.30
2017,01,11,10,29,-6.20
2017,01,11,10,30,-6.20
2017,01,11,10,31,-6.10
2017,01,11,10,32,-6.10
2017,01,11,10,33,-6.10
2017,01,11,10,34,-6.00
2017,01,11,10,35,-6.00
2017,01,11,10,36,-6.00
2017,01,11,10,37,-5.90
2017,01,11,10,38,-5.90
2017,01,11,10,39,-5.80
2017,01,11,10,40,-5.80
2017,01,11,10,41,-5.70
2017,01,11,10,42,-5.70
2017,01,11,10,43,-5.70
2017,01,11,10,44,-5.60
2017,01,11,10,45,-5.60
2017,01,11,10,46,-5.60
2017,01,11,10,47,-5.60
2017,01,11,10,48,-5.60
2017,01,11,10,49,-5.50
2017,01,11,10,50,-5.50
2017,01,11,10,51,-5.40
2017,01,11,10,52,-5.40
2017,01,11,10,53,-5.40
2017,01,11,10,54,-5.30
2017,01,11,10,55,-5.30
2017,01,11,10,56,-5.30
2017,01,11,10,57,-5.20
2017,01,11,10,58,-5.20
2017,01,11,10,59,-5.10
2017,01,11,11,00,-5.10
2017,01,11,11,01,-5.00
2017,01,11,11,02,-5.00
2017,01,11,11,03,-5.00
2017,01,11,11,04,-5.00
2017,01,11,11,05,-4.90
2017,01,11,11,06,-4.90
2017,01,11,11,07,-4.90
2017,01,11,11,08,-4.80
2017,01,11,11,09,-4.80
2017,01,11,11,10,-4.70
2017,01,11,11,11,-4.70
2017,01,11,11,12,-4.60
2017,01,11,11,13,-4.60
2017,01,11,11,14,-4.60
2017,01,11,11,15,-4.50
2017,01,11,11,16,-4.50
2017,01,11,11,17,-4.40
2017,01,11,11,18,-4.40
2017,01,11,11,19,-4.40
2017,01,11,11,20,-4.30
2017,01,11,11,21,-4.30
2017,01,11,11,22,-4.20
2017,01,11,11,23,-4.10
2017,01,11,11,24,-4.10
2017,01,11,11,25,-4.00
2017,01,11,11,26,-3.90
2017,01,11,11,27,-3.80
2017,01,11,11,28,-3.70
2017,01,11,11,29,-3.50
2017,01,11,11,30,-3.50
2017,01,11,11,31,-3.40
2017,01,11,11,32,-3.30
2017,01,11,11,33,-3.20
2017,01,11,11,34,-3.20
2017,01,11,11,35,-3.10
2017,01,11,11,36,-3.00
2017,01,11,11,37,-3.00
2017,01,11,11,38,-2.80
2017,01,11,11,39,-2.70
2017,01,11,11,40,-2.60
2017,01,11,11,41,-2.50
2017,01,11,11,42,-2.40
2017,01,11,11,43,-2.40
2017,01,11,11,44,-2.30
2017,01,11,11,45,-2.30
2017,01,11,11,46,-2.30
2017,01,11,11,47,-2.30
2017,01,11,11,48,-2.30
2017,01,11,11,49,-2.30
2017,01,11,11,50,-2.30
2017,01,11,11,51,-2.30
2017,01,11,11,52,-2.30
2017,01,11,11,53,-2.40
2017,01,11,11,54,-2.50
2017,01,11,11,55,-2.50
2017,01,11,11,56,-2.60
2017,01,11,11,57,-2.70
2017,01,11,11,58,-2.80
2017,01,11,11,59,-2.80
2017,01,11,12,00,-2.90
2017,01,11,12,01,-3.00
2017,01,11,12,02,-3.00
2017,01,11,12,03,-3.10
2017,01,11,12,04,-3.10
2017,01,11,12,05,-3.10
2017,01,11,12,06,-3.10
2017,01,11,12,07,-3.10
2017,01,11,12,08,-3.10
2017,01,11,12,09,-3.10
2017,01,11,12,10,-3.10
2017,01,11,12,11,-3.20
2017,01,11,12,12,-3.20
2017,01,11,12,13,-3.20
2017,01,11,12,14,-3.20
2017,01,11,12,15,-3.20
2017,01,11,12,16,-3.20
2017,01,11,12,17,-3.10
2017,01,11,12,18,-3.10
2017,01,11,12,19,-3.10
2017,01,11,12,20,-3.10
2017,01,11,12,21,-3.00
2017,01,11,12,22,-2.90
2017,01,11,12,23,-2.80
2017,01,11,12,24,-2.80
2017,01,11,12,25,-2.70
2017,01,11,12,26,-2.70
2017,01,11,12,27,-2.60
2017,01,11,12,28,-2.50
2017,01,11,12,29,-2.40
2017,01,11,12,30,-2.40
2017,01,11,12,31,-2.40
2017,01,11,12,32,-2.40
2017,01,11,12,33,-2.40
2017,01,11,12,34,-2.40
2017,01,11,12,35,-2.40
2017,01,11,12,36,-2.40
2017,01,11,12,37,-2.40
2017,01,11,12,38,-2.40
2017,01,11,12,39,-2.40
2017,01,11,12,40,-2.30
2017,01,11,12,41,-2.30
2017,01,11,12,42,-2.30
2017,01,11,12,43,-2.30
2017,01,11,12,44,-2.30
2017,01,11,12,45,-2.30
2017,01,11,12,46,-2.30
2017,01,11,12,47,-2.30
2017,01,11,12,48,-2.30
2017,01,11,12,49,-2.30
2017,01,11,12,50,-2.30
2017,01,11,12,51,-2.30
2017,01,11,12,52,-2.30
2017,01,11,12,53,-2.30
2017,01,11,12,54,-2.30
2017,01,11,12,55,-2.30
2017,01,11,12,56,-2.30
2017,01,11,12,57,-2.30
2017,01,11,12,58,-2.20
2017,01,11,12,59,-2.20
2017,01,11,13,00,-2.20
2017,01,11,13,01,-2.20
2017,01,11,13,02,-2.20
2017,01,11,13,03,-2.20
2017,01,11,13,04,-2.20
2017,01,11,13,05,-2.20
2017,01,11,13,06,-2.20
2017,01,11,13,07,-2.20
2017,01,11,13,08,-2.20
2017,01,11,13,09,-2.10
2017,01,11,13,10,-2.10
2017,01,11,13,11,-2.10
2017,01,11,13,12,-2.10
2017,01,11,13,13,-2.10
2017,01,11,13,14,-2.10
2017,01,11,13,15,-2.10
2017,01,11,13,16,-2.10
2017,01,11,13,17,-2.10
2017,01,11,13,18,-2.00
2017,01,11,13,19,-2.00
2017,01,11,13,20,-2.00
2017,01,11,13,21,-2.00
2017,01,11,13,22,-2.00
2017,01,11,13,23,-1.90
2017,01,11,13,24,-1.90
2017,01,11,13,25,-1.90
2017,01,11,13,26,-1.80
2017,01,11,13,27,-1.80
2017,01,11,13,28,-1.80
2017,01,11,13,29,-1.80
2017,01,11,13,30,-1.70
2017,01,11,13,31,-1.70
2017,01,11,13,32,-1.60
2017,01,11,13,33,-1.60
2017,01,11,13,34,-1.50
2017,01,11,13,35,-1.40
2017,01,11,13,36,-1.30
2017,01,11,13,37,-1.20
2017,01,11,13,38,-1.10
2017,01,11,13,39,-1.10
2017,01,11,13,40,-1.00
2017,01,11,13,41,-0.90
2017,01,11,13,42,-0.90
2017,01,11,13,43,-0.90
2017,01,11,13,44,-0.90
2017,01,11,13,45,-0.80
2017,01,11,13,46,-0.80
2017,01,11,13,47,-0.70
2017,01,11,13,48,-0.70
2017,01,11,13,49,-0.70
2017,01,11,13,50,-0.70
2017,01,11,13,51,-0.70
2017,01,11,13,52,-0.70
2017,01,11,13,53,-0.70
2017,01,11,13,54,-0.70
2017,01,11,13,55,-0.70
2017,01,11,13,56,-0.60
2017,01,11,13,57,-0.60
2017,01,11,13,58,-0.60
2017,01,11,13,59,-0.50
2017,01,11,14,00,-0.50
2017,01,11,14,01,-0.50
2017,01,11,14,02,-0.50
2017,01,11,14,03,-0.50
2017,01,11,14,04,-0.50
2017,01,11,14,05,-0.50
2017,01,11,14,06,-0.50
2017,01,11,14,07,-0.50
2017,01,11,14,08,-0.50
2017,01,11,14,09,-0.50
2017,01,11,14,10,-0.50
2017,01,11,14,11,-0.40
2017,01,11,14,12,-0.40
2017,01,11,14,13,-0.40
2017,01,11,14,14,-0.40
2017,01,11,14,15,-0.40
2017,01,11,14,16,-0.50
2017,01,11,14,17,-0.50
2017,01,11,14,18,-0.50
2017,01,11,14,19,-0.50
2017,01,11,14,20,-0.50
2017,01,11,14,21,-0.60
2017,01,11,14,22,-0.60
2017,01,11,14,23,-0.60
2017,01,11,14,24,-0.60
2017,01,11,14,25,-0.60
2017,01,11,14,26,-0.60
2017,01,11,14,27,-0.70
2017,01,11,14,28,-0.70
2017,01,11,14,29,-0.70
2017,01,11,14,30,-0.70
2017,01,11,14,31,-0.80
2017,01,11,14,32,-0.80
2017,01,11,14,33,-0.80
2017,01,11,14,34,-0.80
2017,01,11,14,35,-0.80
2017,01,11,14,36,-0.80
2017,01,11,14,37,-0.90
2017,01,11,14,38,-0.90
2017,01,11,14,39,-0.90
2017,01,11,14,40,-0.90
2017,01,11,14,41,-0.90
2017,01,11,14,42,-0.90
2017,01,11,14,43,-0.90
2017,01,11,14,44,-0.90
2017,01,11,14,45,-0.90
2017,01,11,14,46,-0.80
2017,01,11,14,47,-0.80
2017,01,11,14,48,-0.80
2017,01,11,14,49,-0.80
2017,01,11,14,50,-0.80
2017,01,11,14,51,-0.90
2017,01,11,14,52,-0.90
2017,01,11,14,53,-0.90
2017,01,11,14,54,-0.90
2017,01,11,14,55,-0.90
2017,01,11,14,56,-0.90
2017,01,11,14,57,-1.00
2017,01,11,14,58,-1.00
2017,01,11,14,59,-1.00
2017,01,11,15,00,-1.10
2017,01,11,15,01,-1.10
2017,01,11,15,02,-1.10
2017,01,11,15,03,-1.20
2017,01,11,15,04,-1.20
2017,01,11,15,05,-1.30
2017,01,11,15,06,-1.30
2017,01,11,15,07,-1.40
2017,01,11,15,08,-1.50
2017,01,11,15,09,-1.50
2017,01,11,15,10,-1.60
2017,01,11,15,11,-1.70
2017,01,11,15,12,-1.80
2017,01,11,15,13,-1.80
2017,01,11,15,14,-1.90
2017,01,11,15,15,-2.00
2017,01,11,15,16,-2.10
2017,01,11,15,17,-2.20
2017,01,11,15,18,-2.20
2017,01,11,15,19,-2.30
2017,01,11,15,20,-2.40
2017,01,11,15,21,-2.50
2017,01,11,15,22,-2.60
2017,01,11,15,23,-2.60
2017,01,11,15,24,-2.70
2017,01,11,15,25,-2.80
2017,01,11,15,26,-2.80
2017,01,11,15,27,-2.90
2017,01,11,15,28,-2.90
2017,01,11,15,29,-3.00
2017,01,11,15,30,-3.00
2017,01,11,15,31,-3.10
2017,01,11,15,32,-3.10
2017,01,11,15,33,-3.10
2017,01,11,15,34,-3.20
2017,01,11,15,35,-3.20
2017,01,11,15,36,-3.20
2017,01,11,15,37,-3.30
2017,01,11,15,38,-3.30
2017,01,11,15,39,-3.30
2017,01,11,15,40,-3.30
2017,01,11,15,41,-3.40
2017,01,11,15,42,-3.40
2017,01,11,15,43,-3.40
2017,01,11,15,44,-3.40
2017,01,11,15,45,-3.50
2017,01,11,15,46,-3.50
2017,01,11,15,47,-3.50
2017,01,11,15,48,-3.60
2017,01,11,15,49,-3.60
2017,01,11,15,50,-3.60
2017,01,11,15,51,-3.70
2017,01,11,15,52,-3.70
2017,01,11,15,53,-3.70
2017,01,11,15,54,-3.80
2017,01,11,15,55,-3.80
2017,01,11,15,56,-3.80
2017,01,11,15,57,-3.90
2017,01,11,15,58,-3.90
2017,01,11,15,59,-3.90
2017,01,11,16,00,-3.90
2017,01,11,16,01,-4.00
2017,01,11,16,02,-4.00
2017,01,11,16,03,-4.00
2017,01,11,16,04,-4.10
2017,01,11,16,05,-4.10
2017,01,11,16,06,-4.10
2017,01,11,16,07,-4.10
2017,01,11,16,08,-4.10
2017,01,11,16,09,-4.10
2017,01,11,16,10,-4.10
2017,01,11,16,11,-4.10
2017,01,11,16,12,-4.10
2017,01,11,16,13,-4.10
2017,01,11,16,14,-4.10
2017,01,11,16,15,-4.20
2017,01,11,16,16,-4.20
2017,01,11,16,17,-4.20
2017,01,11,16,18,-4.20
2017,01,11,16,19,-4.20
2017,01,11,16,20,-4.20
2017,01,11,16,21,-4.20
2017,01,11,16,22,-4.20
2017,01,11,16,23,-4.20
2017,01,11,16,24,-4.20
2017,01,11,16,25,-4.20
2017,01,11,16,26,-4.20
2017,01,11,16,27,-4.20
2017,01,11,16,28,-4.20
2017,01,11,16,29,-4.20
2017,01,11,16,30,-4.30
2017,01,11,16,31,-4.30
2017,01,11,16,32,-4.30
2017,01,11,16,33,-4.30
2017,01,11,16,34,-4.30
2017,01,11,16,35,-4.30
2017,01,11,16,36,-4.40
2017,01,11,16,37,-4.40
2017,01,11,16,38,-4.40
2017,01,11,16,39,-4.40
2017,01,11,16,40,-4.40
2017,01,11,16,41,-4.40
2017,01,11,16,42,-4.40
2017,01,11,16,43,-4.50
2017,01,11,16,44,-4.50
2017,01,11,16,45,-4.50
2017,01,11,16,46,-4.50
2017,01,11,16,47,-4.50
2017,01,11,16,48,-4.60
2017,01,11,16,49,-4.60
2017,01,11,16,50,-4.60
2017,01,11,16,51,-4.60
2017,01,11,16,52,-4.60
2017,01,11,16,53,-4.70
2017,01,11,16,54,-4.70
2017,01,11,16,55,-4.70
2017,01,11,16,56,-4.70
2017,01,11,16,57,-4.70
2017,01,11,16,58,-4.80
2017,01,11,16,59,-4.80
2017,01,11,17,00,-4.80
2017,01,11,17,01,-4.80
2017,01,11,17,02,-4.80
2017,01,11,17,03,-4.80
2017,01,11,17,04,-4.90
2017,01,11,17,05,-4.90
2017,01,11,17,06,-4.90
2017,01,11,17,07,-4.90
2017,01,11,17,08,-5.00
2017,01,11,17,09,-5.00
2017,01,11,17,10,-5.10
2017,01,11,17,11,-5.10
2017,01,11,17,12,-5.10
2017,01,11,17,13,-5.10
2017,01,11,17,14,-5.10
2017,01,11,17,15,-5.10
2017,01,11,17,16,-5.10
2017,01,11,17,17,-5.10
2017,01,11,17,18,-5.20
2017,01,11,17,19,-5.20